Location: Azat
(46.0765°N, 1.7600°E)
Time: 18:26:07
(UTC+00:00)

Daily predictions for brighter satellites

Satellite Brightness Start Highest point End
(mag) Time Altitude Azimuth Time Altitude Azimuth Time Altitude Azimuth
Cosmos 1782 2.8 19:51:41 10° S 19:55:38 75° E 19:59:37 10° NNE
USA 308 3.0 19:51:39 10° WNW 19:55:57 84° SW 20:00:14 10° SE
X-37B 3.3 19:58:30 10° SW 19:59:04 10° SW 19:59:37 10° SSW
Cosmos 1933 4.2 19:55:23 10° SSW 19:59:19 53° WNW 20:03:17 10° N
Cosmos 1500 3.3 19:58:10 10° N 20:01:52 56° E 20:05:31 10° SSE
Cosmos 1437 2.3 20:00:57 10° S 20:03:46 81° ESE 20:06:38 10° NNE
Meteor 1-5 Rocket 4.4 20:01:57 10° N 20:07:10 52° ENE 20:12:19 10° SSE
SJ-6B 3.9 20:04:08 10° S 20:07:56 45° W 20:11:50 10° NNW
ERS-2 3.8 20:06:48 10° N 20:10:12 38° WNW 20:13:34 10° SW
Terra 3.8 20:13:18 10° E 20:15:52 15° ENE 20:18:27 10° NNE
MetOp-B 4.5 20:11:40 10° SE 20:16:50 52° ENE 20:22:02 10° N
Cosmos 1515 Rocket 3.6 20:15:26 10° S 20:19:45 59° E 20:24:04 10° NNE
USA 267 4.4 20:16:28 10° SSE 20:22:17 34° SW 20:28:09 10° WNW
Cosmos 2228 Rocket 4.1 20:19:04 11° SE 20:22:36 28° E 20:26:25 10° NNE
Cosmos 1633 Rocket 3.8 20:18:37 10° NNW 20:22:55 54° W 20:27:14 10° S
Tianhe-1 2.3 20:20:42 10° SW 20:23:18 24° SSE 20:25:05 15° ESE
Cosmos 2315 Rocket 4.2 20:16:58 10° S 20:23:21 80° W 20:29:47 10° N
Resurs 01 Rocket 1.6 20:21:57 10° SSE 20:26:23 86° E 20:30:51 10° NNW
BREEZE M DEB (TANK) 2.3 20:24:11 10° WNW 20:29:14 60° N 20:31:13 13° E
SWARM A 4.2 20:27:12 10° N 20:30:30 65° E 20:33:27 12° S
Cosmos 1328 Rocket 4.2 20:26:25 10° SSW 20:30:46 60° W 20:35:08 10° N
Cosmos 2082 Rocket 2.2 20:25:11 10° NNW 20:30:50 73° ENE 20:35:40 14° SSE
SPOT 1/Viking Rocket 3.8 20:27:48 13° SE 20:32:23 56° ENE 20:37:28 10° N
ERS-1 Rocket 4.1 20:29:27 13° ESE 20:33:05 29° ENE 20:37:23 10° N
USA 305 3.7 20:29:25 10° WNW 20:33:27 42° SW 20:36:40 15° SSE
Cosmos 1943 Rocket 3.3 20:35:05 14° SSE 20:38:32 24° ESE 20:42:57 10° NE
Spot 2 Rocket 3.9 20:35:19 15° SE 20:39:13 47° ENE 20:44:04 10° N
Cosmos 1538 Rocket 4.4 20:34:24 10° NNW 20:39:43 64° WSW 20:44:50 10° S
Cosmos 1470 Rocket 4.1 20:35:56 10° NNW 20:40:23 62° W 20:44:48 10° S
OBJECT-B 3.7 20:39:11 10° SW 20:41:02 14° W 20:42:54 10° WNW
Meteor 1-10 Rocket 4.2 20:36:40 10° S 20:42:12 67° E 20:47:53 10° NNE
ERBS 3.8 20:39:26 10° NW 20:42:23 29° NNE 20:44:57 12° E
CARTOSAT-1 4.1 20:42:25 18° SE 20:45:15 42° ENE 20:49:21 10° N
Landsat 7 3.9 20:40:49 11° S 20:45:22 80° WSW 20:50:10 10° NNW
SPOT 5 3.9 20:42:26 16° SE 20:46:01 38° ENE 20:50:55 10° N
Cosmos 1536 3.6 20:42:48 10° N 20:46:35 36° ENE 20:48:43 21° SE
CZ-2C R/B 3.6 20:43:23 10° NNE 20:47:56 73° ESE 20:52:32 10° S
SPOT 3 Rocket 3.8 20:43:39 10° S 20:48:46 69° WSW 20:53:56 10° NNW
Cosmos 1271 Rocket 2.7 20:45:08 10° S 20:49:07 81° E 20:53:09 10° NNE
COSMOS 2406 4.2 20:47:18 10° NW 20:52:37 42° WSW 20:57:53 10° S
USA 306 4.1 20:49:16 10° WNW 20:53:01 31° SW 20:55:36 17° S
Cosmos 1680 Rocket 3.7 20:48:41 10° NNW 20:53:58 61° ENE 20:57:31 21° SE
Cosmos 1933 Rocket 3.8 20:49:48 10° NNW 20:54:07 67° W 20:57:58 13° S
ISS -3.9 20:50:49 10° SW 20:54:11 78° SSE 20:57:34 10° ENE
Cosmos 2278 Rocket 3.1 20:49:39 10° SW 20:55:10 53° WNW 21:00:44 10° NNE
SJ 16-02 2.1 20:53:23 10° SW 20:57:44 54° WNW 21:02:07 10° NNE
Cosmos 2084 Rocket 3.9 20:54:00 10° NNW 20:58:11 53° NE 21:00:52 22° ESE
Cosmos 1544 3.9 20:56:35 10° N 20:59:56 35° ENE 21:01:17 26° ESE
Cosmos 2369 Rocket 3.5 20:58:46 18° ESE 20:59:59 19° E 21:03:51 10° NE
IGS 5A 4.4 20:57:54 10° S 21:01:49 44° W 21:05:48 10° NNW
Cosmos 1666 3.5 21:03:01 10° NNW 21:06:36 46° W 21:09:29 15° SSW
JB-3 4.2 21:06:08 10° NNE 21:09:58 62° E 21:12:01 25° S
Cosmos 1733 Rocket 4.3 21:07:11 10° NNE 21:10:53 27° ENE 21:12:25 22° ESE
ARIANE 5 R/B 2.5 21:10:14 25° SSE 21:12:46 87° ENE 21:17:08 10° NNW
NOSS 3-4 (A) 4.3 21:10:10 10° NW 21:17:02 54° WSW 21:22:33 19° S
NOSS 3-4 (C) 4.3 21:10:17 10° NW 21:17:09 55° WSW 21:22:39 19° S
Iridium 4 Rocket 4.0 21:12:28 10° S 21:18:17 73° W 21:24:12 10° N
BREEZE-M DEB (TANK) 1.3 21:16:30 10° WNW 21:18:29 66° NNE 21:18:57 47° E
USA 245 3.0 21:18:31 34° SW 21:18:54 37° W 21:21:10 10° NNW
Cosmos 990 Rocket 4.0 21:18:31 10° SSW 21:23:45 86° WNW 21:29:03 10° NNE
Cosmos 1898 Rocket 3.5 21:21:38 11° SSW 21:26:45 83° ESE 21:32:07 10° NNE
Meteor 1-27 Rocket 3.9 21:24:44 12° SSW 21:30:12 81° W 21:36:11 10° N
ATLAS 2AS CENTAUR R/B 2.8 21:23:11 10° NW 21:30:30 71° WSW 21:34:29 27° SSE
SL-24 R/B - RUBIN 2 4.0 21:26:29 10° NW 21:31:51 67° WSW 21:34:02 32° SSE
Cosmos 44 3.7 21:28:06 10° NW 21:33:30 65° WSW 21:35:56 31° SSE
Cosmos 1818 3.5 21:30:41 10° NW 21:36:13 88° ENE 21:38:46 33° SE
Cosmos 2154 Rocket 4.2 21:30:28 10° NNW 21:36:46 71° W 21:40:59 22° S
Cosmos 1743 2.6 21:34:12 10° N 21:38:05 76° E 21:39:06 47° SSE
Nadezhda 1 Rocket 4.2 21:35:33 13° SSW 21:41:18 71° W 21:47:31 10° N
Cosmos 962 Rocket 4.4 21:35:29 10° N 21:41:38 76° E 21:44:46 31° SSE
Meteor 1-19 Rocket 4.5 21:43:17 34° SE 21:45:05 47° E 21:50:15 10° NNE
BREEZE-M R/B 2.8 21:45:09 10° WNW 21:47:30 45° NNE 21:47:59 39° NE
H-2A R/B 3.3 21:47:00 10° NNE 21:51:11 78° ESE 21:52:23 45° S
Terra 1.8 21:51:09 38° S 21:52:59 80° WSW 21:57:46 10° NNW
Cosmos 1461 3.1 21:50:19 13° SW 21:54:35 86° NW 21:59:14 10° NE
Gbstr 26 Del rocket 4.1 21:47:37 10° WNW 21:55:13 76° SSW 21:58:20 33° SE
Cosmos 1862 Rocket 3.5 21:57:49 51° SE 21:58:38 63° E 22:02:55 10° NNE
Cosmos 1340 Rocket 3.6 21:55:09 10° NNW 21:59:04 47° W 22:00:21 34° SW
Tianhe-1 3.6 21:56:34 10° WSW 21:57:04 13° WSW 21:57:04 13° WSW
Cosmos 2297 4.1 21:54:19 10° SW 21:59:58 62° WNW 22:05:37 10° NNE
Okean 1 3.2 22:00:55 60° S 22:01:36 82° E 22:05:35 10° N
Resurs 01 Rocket 4.5 22:02:49 10° W 22:03:30 10° W 22:04:11 10° WNW
ATLAS CENTAUR R/B 2.7 22:10:15 23° ENE 22:10:15 23° ENE 22:12:05 10° NE
Cosmos 1607 4.1 22:06:38 34° S 22:09:13 55° ESE 22:15:33 10° NE
ERS-1 Rocket 3.9 22:09:26 25° SSW 22:11:44 39° W 22:16:27 10° NNW
Cosmos 2082 Rocket 4.2 22:10:35 10° WNW 22:14:15 18° W 22:17:31 11° SW
Cosmos 1515 4.1 22:13:58 45° SW 22:14:45 56° WNW 22:18:29 10° N
Cosmos 2366 rocket 3.9 22:10:24 10° N 22:16:37 79° E 22:18:59 41° SSE
ERBS 3.6 22:15:26 10° WNW 22:17:42 32° W 22:17:42 32° W
Cosmos 2181 Rocket 3.9 22:16:13 36° S 22:18:53 87° E 22:25:03 10° N
Cosmos 1937 Rocket 4.3 22:17:04 14° SW 22:21:21 48° WNW 22:26:23 10° NNE
Cosmos 1943 Rocket 2.8 22:16:31 11° SW 22:21:53 56° WNW 22:27:23 10° NNE
SPOT 5 4.3 22:21:39 22° SW 22:24:05 33° W 22:28:52 10° NNW
Milstar 3 4.4 22:18:47 10° WSW 22:28:36 26° SSW 22:29:20 26° SSW
Cosmos 1867 3.4 22:28:40 40° SSW 22:30:43 81° ESE 22:36:13 10° NE
ISS -2.1 22:28:06 10° WNW 22:31:13 34° N 22:34:22 10° ENE
Cosmos 1656 Rocket 3.6 22:30:07 51° SSE 22:31:16 64° ESE 22:36:45 10° NNE
Spot 4 4.2 22:30:35 46° ESE 22:31:34 55° ENE 22:36:19 10° N
Cosmos 1238 Rocket 4.1 22:30:47 10° NNW 22:36:19 50° W 22:37:52 37° SW
Cosmos 1975 3.0 22:37:07 10° NNW 22:41:04 61° W 22:41:09 61° WSW
Cosmos 1048 Rocket 3.9 22:36:22 10° NNW 22:41:43 82° ENE 22:42:47 58° SSE
Cosmos 2369 Rocket 2.4 22:40:30 29° SW 22:43:23 69° WNW 22:49:03 10° NNE
Cosmos 2218 Rocket 4.3 22:40:05 10° NNW 22:46:18 62° W 22:48:38 39° SSW
Cosmos 2344 4.5 22:38:23 10° NW 22:47:30 71° NE 22:56:38 21° SE
ALOS 2 3.2 22:47:43 42° E 22:48:09 43° ENE 22:52:19 10° N
Cosmos 1733 Rocket 4.4 22:44:55 10° NNW 22:48:39 29° W 22:49:30 27° WSW
BREEZE-M DEB (TANK) 4.3 22:34:05 10° WNW 22:50:42 84° SSW 22:52:47 41° ESE
Okean 3 4.3 22:51:44 39° ENE 22:51:44 39° ENE 22:55:19 10° NNE
Lacrosse 5 2.8 22:54:17 34° E 22:54:17 34° E 22:57:43 10° ENE
RESURS DK-1 2.5 22:49:39 10° NNW 22:53:36 65° W 22:53:36 65° W
SL-27 R/B 3.2 22:50:30 10° NNW 22:53:02 48° N 22:53:02 48° N
Cosmos 1356 Rocket 3.8 22:53:26 10° N 22:57:40 54° ENE 22:57:43 54° ENE
Nadezhda 3 Rocket 4.0 22:59:44 50° SSE 23:01:17 69° E 23:07:26 10° NNE
Cosmos 1908 Rocket 4.1 23:04:28 10° NNW 23:08:47 48° W 23:09:03 48° WSW
Meteor 1-12 Rocket 4.2 23:05:14 10° N 23:11:06 82° ENE 23:12:18 58° SSE
Cosmos 2298 Rocket 4.2 23:09:55 46° SW 23:11:22 68° WNW 23:16:40 10° NNE
USA 215 4.3 23:06:17 10° E 23:12:21 43° NNE 23:18:26 10° NW
Thor Agena Rocket 4.3 23:10:26 10° NNE 23:15:22 39° E 23:15:40 39° ESE
Sich 1 Rocket 3.9 23:12:02 10° N 23:16:31 56° ENE 23:16:39 56° E
COSMOS 2455 4.0 23:12:22 10° NNW 23:17:55 37° NE 23:21:46 18° ESE
Cosmos 1805 4.0 23:15:05 10° N 23:18:27 45° NE 23:18:27 45° NE
Cosmos 494 Rocket 4.0 23:14:57 10° NNW 23:20:04 64° WSW 23:20:30 61° SW
Cosmos 1378 3.7 23:22:00 56° N 23:22:00 56° N 23:25:02 10° N
Cosmos 2242 Rocket 4.2 23:21:30 44° W 23:22:00 46° WNW 23:26:21 10° N
Cosmos 1066 Rocket 4.2 23:22:33 60° SSE 23:23:30 73° E 23:29:06 10° NNE
COBE Rocket 3.8 23:26:12 70° SSE 23:26:50 87° ENE 23:32:02 10° NNW
Okean 2 Rocket 3.5 23:23:48 10° N 23:28:06 51° ENE 23:28:09 50° E
Meteor 1-15 Rocket 4.3 23:23:04 10° N 23:28:49 72° ENE 23:30:02 55° SE
Cosmos 2239 Rocket 4.5 23:23:27 10° N 23:29:48 80° W 23:31:22 54° S
Cosmos 2151 Rocket 4.3 23:25:48 10° N 23:30:07 42° ENE 23:30:21 42° E
Cosmos 2227 Rocket 4.1 23:28:37 10° N 23:33:09 24° NE 23:37:39 10° E
Okean 1-7 4.0 23:33:20 36° W 23:33:43 37° WNW 23:37:43 10° N
Cosmos 44 Rocket 3.4 23:29:36 10° NW 23:34:47 66° WSW 23:34:54 65° SW
Cosmos 2297 Rocket 3.7 23:30:33 10° N 23:35:32 30° NE 23:39:09 16° ESE
SAR-Lupe-2 4.3 23:32:47 10° N 23:35:36 52° N 23:35:36 52° N
Cosmos 1766 3.9 23:33:32 10° N 23:36:58 50° NE 23:36:58 50° NE
Cosmos 1782 Rocket 4.4 23:37:09 10° NNW 23:41:12 39° W 23:41:12 39° W
NOSS 2-1 (C) 4.2 23:39:01 10° NW 23:44:00 76° SW 23:45:14 58° SSE
Cosmos 1125 Rocket 4.2 23:44:32 36° WSW 23:46:06 46° WNW 23:51:08 10° NNE
COSMOS 2487 3.7 23:43:58 10° NNW 23:46:11 38° NNW 23:46:11 38° NNW
ATLAS CENTAUR R/B 3.1 23:46:20 21° WNW 23:47:34 25° NW 23:50:48 10° NNE
NOSS 2-1 (D) 4.2 23:45:54 10° NW 23:50:55 69° SW 23:51:55 58° S
Cosmos 1934 Rocket 3.9 23:46:03 10° N 23:52:10 79° W 23:53:27 57° SSW
Cosmos 1378 Rocket 4.4 23:53:20 39° E 23:53:20 39° E 23:57:08 10° NNE
